Location: Beaver Brook Trail
(44.0290°N, 71.8137°W)
Time: 03:05:03
(UTC+00:00)

SR - Pass Details

Date: 20 November 2024
Orbit: 573 x 858 km, 66.7° (Epoch: 03 December)

Event Time Altitude Azimuth Distance (km) Brightness Sun altitude
Exits shadow 10:56:16 - 321° (NW) 2,528 ? -9.6°
Reaches altitude 10° 10:56:50 10° 319° (NW) 2,318 ? -9.5°
Maximum altitude 11:02:02 53° 244° (WSW) 985 ? -8.7°
Drops below altitude 10° 11:07:31 10° 169° (S) 2,447 ? -7.7°
Sets 11:10:04 0° 165° (SSE) 3,398 ? -7.3°
